Simultaneous Nadir Overpasses (SNOs) Predictions

Prediction of SNOs between METOP-A and TERRA Satellite Orbit:

Table of predicted SNOs for the next 14.0 days since TLE Epoch: 4/5/2014
Index Date (METOP-A) Time (METOP-A) Lat,Lon (METOP-A) SZA (METOP-A ) Date (TERRA) Time (TERRA) Lat,Lon (TERRA) SZA (TERRA ) Distance(km) Time Diff (sec)
1 04/06/2014 22:38:14 -81.32, 67.83 102.62 04/06/2014 22:38:59 -81.31, 67.76 102.61 1.31 45
2 04/06/2014 23:28:54 81.32,-124.64 77.40 04/06/2014 23:28:25 81.32,-124.48 77.40 2.71 29
3 04/09/2014 18:12:38 -81.32, 134.28 103.64 04/09/2014 18:13:14 -81.31, 134.19 103.64 1.71 36
4 04/09/2014 19:03:18 81.32, -58.21 76.38 04/09/2014 19:02:40 81.31, -58.08 76.37 2.12 38
5 04/12/2014 13:47:01 -81.32,-159.35 104.65 04/12/2014 13:47:27 -81.31,-159.29 104.63 1.01 26
6 04/12/2014 14:37:40 81.32, 8.54 75.41 04/12/2014 14:36:53 81.32, 8.40 75.37 2.28 47
7 04/15/2014 09:21:24 -81.32, -92.68 105.61 04/15/2014 09:21:40 -81.32, -92.69 105.60 0.44 16
8 04/15/2014 10:12:04 81.32, 74.81 74.41 04/15/2014 10:11:06 81.32, 74.99 74.40 3.05 58
9 04/18/2014 04:55:48 -81.32, -26.49 106.60 04/18/2014 04:55:53 -81.32, -26.37 106.59 1.99 5




NCC Satellite Simultaneous Nadir Overpasses (SNOs) Prediction Service
